Hourly Data Report for August 25, 2013

All times are specified in Local Standard Time (LST). Add 1 hour to adjust for Daylight Saving Time where and when it is observed.

VICTORIA INTL A
BRITISH COLUMBIA

48°38'50.000" N
123°25'33.000" W
19.50 m
1018621
71799
YYJ

Download Data

Hourly Data (August 2013)
Hourly Data Report for August 25, 2013
Temp Definition
°C
Dew Point Temp Definition
°C
Rel Hum Definition
%
Wind Dir Definition
10's deg

Wind Spd Definition
km/h
Visibility Definition
km
Stn Press Definition
kPa
Hmdx Definition


Wind Chill Definition


Weather Definition


TIME
00:00 Legend Double Dagger 14.4 11.6 83 28 12 32.2 101.12     LegendNANA
01:00 Legend Double Dagger 13.4 11.3 87 25 13 32.2 101.13     Mainly Clear
02:00 Legend Double Dagger 13.9 11.5 85 25 10 32.2 101.14     LegendNANA
03:00 Legend Double Dagger 13.7 11.1 84 28 10 32.2 101.15     LegendNANA
04:00 Legend Double Dagger 13.2 10.8 85 26 10 32.2 101.15     Mostly Cloudy
05:00 Legend Double Dagger 12.6 10.5 87 27 11 32.2 101.16     LegendNANA
06:00 Legend Double Dagger 12.6 10.3 86 28 17 32.2 101.20     LegendNANA
07:00 Legend Double Dagger 13.6 10.3 80 28 14 32.2 101.21     Clear
08:00 Legend Double Dagger 14.8 9.4 70 27 14 48.3 101.21     LegendNANA
09:00 Legend Double Dagger 17.5 9.2 58 28 8 48.3 101.20     LegendNANA
10:00 Legend Double Dagger 19.4 10.8 57 5 12 48.3 101.17     Clear
11:00 Legend Double Dagger 20.5 10.7 53 7 13 48.3 101.13     LegendNANA
12:00 Legend Double Dagger 20.7 10.9 53 9 13 48.3 101.08     LegendNANA
13:00 Legend Double Dagger 20.7 11.2 54 10 15 48.3 101.04     Mainly Clear
14:00 Legend Double Dagger 21.0 11.7 55 11 11 48.3 101.00     LegendNANA
15:00 Legend Double Dagger 22.1 10.4 47 11 7 48.3 100.95     LegendNANA
16:00 Legend Double Dagger 20.1 10.6 54 13 16 48.3 100.93     Mostly Cloudy
17:00 Legend Double Dagger 19.5 10.9 57 12 16 48.3 100.90     LegendNANA
18:00 Legend Double Dagger 18.2 9.6 57 12 18 48.3 100.86     LegendNANA
19:00 Legend Double Dagger 17.4 9.6 60 12 16 48.3 100.87     Mostly Cloudy
20:00 Legend Double Dagger 16.7 9.5 62 9 9 48.3 100.89     LegendNANA
21:00 Legend Double Dagger 12.9 10.5 85 7 8 48.3 100.89     LegendNANA
22:00 Legend Double Dagger 12.4 10.3 87 10 7 48.3 100.93     Mainly Clear
23:00 Legend Double Dagger 11.4 10.0 91 15 6 48.3 100.88     LegendNANA

Notes on Data Quality.

Legend

  • E = Estimated
  • M = Missing
  • NA = Not Available
  • ‡ = Partner data that is not subject to review by the National Climate Archives
Date modified: